contact:dominique.lefevre@mio.osupytheas.fr, maurice.libes@osupytheas.fr, didier.mallarino@osupytheas.fr
Project:EMSO http://www.emso-fr.org/EMSO-France
Depth: 2436.0 m
Title:EMSO Ligure Ouest : Data MII capteur MICROCAT
DateTime_Computer,Latitude,Longitude,Temperature,Conductivity,Pressure,DateTime_Instrument
DateTime_Computer,Latitude,Longitude,degC,S m-1,dbar,DateTime_Instrument
2020-12-09T00:01:43Z,42.805,6.029,13.2982,4.60001,2470.203,2020-12-09T02:02:42Z
2020-12-09T00:04:46Z,42.805,6.029,13.2986,4.60001,2470.203,2020-12-09T02:05:45Z
2020-12-09T00:07:49Z,42.805,6.029,13.2989,4.59996,2470.203,2020-12-09T02:08:48Z
2020-12-09T00:10:52Z,42.805,6.029,13.2982,4.60009,2470.217,2020-12-09T02:11:51Z
2020-12-09T00:13:56Z,42.805,6.029,13.2982,4.59996,2470.203,2020-12-09T02:14:54Z
2020-12-09T00:16:59Z,42.805,6.029,13.2990,4.60003,2470.203,2020-12-09T02:17:57Z
2020-12-09T00:20:02Z,42.805,6.029,13.2983,4.59996,2470.227,2020-12-09T02:21:00Z
2020-12-09T00:23:05Z,42.805,6.029,13.2985,4.59988,2470.24,2020-12-09T02:24:03Z
2020-12-09T00:26:08Z,42.805,6.029,13.2983,4.59998,2470.18,2020-12-09T02:27:06Z
2020-12-09T00:29:11Z,42.805,6.029,13.2988,4.60003,2470.227,2020-12-09T02:30:10Z
2020-12-09T00:32:14Z,42.805,6.029,13.2985,4.60002,2470.194,2020-12-09T02:33:13Z
2020-12-09T00:35:17Z,42.805,6.029,13.2986,4.59999,2470.24,2020-12-09T02:36:16Z
2020-12-09T00:38:20Z,42.805,6.029,13.2989,4.59997,2470.217,2020-12-09T02:39:19Z
2020-12-09T00:41:24Z,42.805,6.029,13.2990,4.59996,2470.217,2020-12-09T02:42:22Z
2020-12-09T00:44:27Z,42.805,6.029,13.2984,4.60001,2470.217,2020-12-09T02:45:25Z
2020-12-09T00:47:30Z,42.805,6.029,13.2983,4.59996,2470.217,2020-12-09T02:48:28Z
2020-12-09T00:50:33Z,42.805,6.029,13.2987,4.60002,2470.18,2020-12-09T02:51:31Z
2020-12-09T00:53:36Z,42.805,6.029,13.2984,4.60001,2470.24,2020-12-09T02:54:35Z
2020-12-09T00:56:39Z,42.805,6.029,13.2991,4.60000,2470.24,2020-12-09T02:57:38Z
2020-12-09T00:59:42Z,42.805,6.029,13.2984,4.60010,2470.24,2020-12-09T03:00:41Z
2020-12-09T01:02:45Z,42.805,6.029,13.2987,4.60001,2470.217,2020-12-09T03:03:44Z
2020-12-09T01:05:49Z,42.805,6.029,13.2986,4.60004,2470.24,2020-12-09T03:06:47Z
2020-12-09T01:08:52Z,42.805,6.029,13.2983,4.60003,2470.203,2020-12-09T03:09:50Z
2020-12-09T01:11:55Z,42.805,6.029,13.2986,4.59999,2470.227,2020-12-09T03:12:53Z
2020-12-09T01:14:58Z,42.805,6.029,13.2986,4.59995,2470.25,2020-12-09T03:15:56Z
2020-12-09T01:18:01Z,42.805,6.029,13.2983,4.59998,2470.227,2020-12-09T03:18:59Z
2020-12-09T01:21:04Z,42.805,6.029,13.2986,4.60001,2470.227,2020-12-09T03:22:03Z
2020-12-09T01:24:07Z,42.805,6.029,13.2986,4.59995,2470.24,2020-12-09T03:25:06Z
2020-12-09T01:27:10Z,42.805,6.029,13.2985,4.59999,2470.227,2020-12-09T03:28:09Z
2020-12-09T01:30:13Z,42.805,6.029,13.2991,4.60016,2470.24,2020-12-09T03:31:12Z
2020-12-09T01:33:17Z,42.805,6.029,13.2986,4.60003,2470.25,2020-12-09T03:34:15Z
2020-12-09T01:36:20Z,42.805,6.029,13.2987,4.60006,2470.24,2020-12-09T03:37:18Z
2020-12-09T01:39:23Z,42.805,6.029,13.2986,4.60001,2470.227,2020-12-09T03:40:21Z
2020-12-09T01:42:26Z,42.805,6.029,13.2989,4.59996,2470.227,2020-12-09T03:43:24Z
2020-12-09T01:45:29Z,42.805,6.029,13.2981,4.59999,2470.264,2020-12-09T03:46:28Z
2020-12-09T01:48:32Z,42.805,6.029,13.2992,4.60011,2470.227,2020-12-09T03:49:31Z
2020-12-09T01:51:35Z,42.805,6.029,13.2990,4.60005,2470.227,2020-12-09T03:52:34Z
2020-12-09T01:54:38Z,42.805,6.029,13.2987,4.60013,2470.203,2020-12-09T03:55:37Z
2020-12-09T01:57:42Z,42.805,6.029,13.2982,4.59997,2470.217,2020-12-09T03:58:40Z
2020-12-09T02:00:45Z,42.805,6.029,13.2983,4.60004,2470.203,2020-12-09T04:01:43Z
2020-12-09T02:03:48Z,42.805,6.029,13.2986,4.59998,2470.203,2020-12-09T04:04:46Z
2020-12-09T02:06:51Z,42.805,6.029,13.2986,4.59996,2470.227,2020-12-09T04:07:49Z
2020-12-09T02:09:54Z,42.805,6.029,13.2983,4.59996,2470.227,2020-12-09T04:10:52Z
2020-12-09T02:12:57Z,42.805,6.029,13.2985,4.59999,2470.227,2020-12-09T04:13:56Z
2020-12-09T02:16:00Z,42.805,6.029,13.2984,4.59998,2470.203,2020-12-09T04:16:59Z
2020-12-09T02:19:03Z,42.805,6.029,13.2984,4.59991,2470.203,2020-12-09T04:20:02Z
2020-12-09T02:22:06Z,42.805,6.029,13.2980,4.59999,2470.203,2020-12-09T04:23:05Z
2020-12-09T02:25:10Z,42.805,6.029,13.2983,4.60003,2470.25,2020-12-09T04:26:08Z
2020-12-09T02:28:13Z,42.805,6.029,13.2983,4.60001,2470.217,2020-12-09T04:29:11Z
2020-12-09T02:31:16Z,42.805,6.029,13.2987,4.60000,2470.203,2020-12-09T04:32:14Z
2020-12-09T02:34:19Z,42.805,6.029,13.2983,4.60001,2470.24,2020-12-09T04:35:17Z
2020-12-09T02:37:22Z,42.805,6.029,13.2988,4.59999,2470.203,2020-12-09T04:38:20Z
2020-12-09T02:40:25Z,42.805,6.029,13.2987,4.60003,2470.227,2020-12-09T04:41:24Z
2020-12-09T02:43:28Z,42.805,6.029,13.2987,4.60001,2470.217,2020-12-09T04:44:27Z
2020-12-09T02:46:31Z,42.805,6.029,13.2979,4.60003,2470.24,2020-12-09T04:47:30Z
2020-12-09T02:49:35Z,42.805,6.029,13.2990,4.60002,2470.217,2020-12-09T04:50:33Z
2020-12-09T02:52:38Z,42.805,6.029,13.2980,4.60000,2470.203,2020-12-09T04:53:36Z
2020-12-09T02:55:41Z,42.805,6.029,13.2987,4.59991,2470.24,2020-12-09T04:56:39Z
2020-12-09T02:58:44Z,42.805,6.029,13.2984,4.59993,2470.203,2020-12-09T04:59:42Z
2020-12-09T03:01:47Z,42.805,6.029,13.2993,4.60003,2470.24,2020-12-09T05:02:45Z
2020-12-09T03:04:50Z,42.805,6.029,13.2986,4.60001,2470.264,2020-12-09T05:05:49Z
2020-12-09T03:07:53Z,42.805,6.029,13.2985,4.59997,2470.203,2020-12-09T05:08:52Z
2020-12-09T03:10:56Z,42.805,6.029,13.2984,4.60000,2470.227,2020-12-09T05:11:55Z
2020-12-09T03:13:59Z,42.805,6.029,13.2990,4.60002,2470.227,2020-12-09T05:14:58Z
2020-12-09T03:17:03Z,42.805,6.029,13.2982,4.59996,2470.227,2020-12-09T05:18:01Z
2020-12-09T03:20:06Z,42.805,6.029,13.2983,4.60004,2470.203,2020-12-09T05:21:04Z
2020-12-09T03:23:09Z,42.805,6.029,13.2981,4.60000,2470.25,2020-12-09T05:24:07Z
2020-12-09T03:26:12Z,42.805,6.029,13.2986,4.60001,2470.203,2020-12-09T05:27:10Z
2020-12-09T03:29:15Z,42.805,6.029,13.2986,4.59997,2470.227,2020-12-09T05:30:13Z
2020-12-09T03:32:18Z,42.805,6.029,13.2988,4.59996,2470.24,2020-12-09T05:33:17Z
2020-12-09T03:35:21Z,42.805,6.029,13.2983,4.59991,2470.24,2020-12-09T05:36:20Z
2020-12-09T03:38:24Z,42.805,6.029,13.2983,4.59988,2470.203,2020-12-09T05:39:23Z
2020-12-09T03:41:28Z,42.805,6.029,13.2987,4.59993,2470.227,2020-12-09T05:42:26Z
2020-12-09T03:44:31Z,42.805,6.029,13.2986,4.59999,2470.203,2020-12-09T05:45:29Z
2020-12-09T03:47:34Z,42.805,6.029,13.2982,4.59996,2470.203,2020-12-09T05:48:32Z
2020-12-09T03:50:37Z,42.805,6.029,13.2981,4.59999,2470.203,2020-12-09T05:51:35Z
2020-12-09T03:53:40Z,42.805,6.029,13.2986,4.59996,2470.203,2020-12-09T05:54:38Z
2020-12-09T03:56:43Z,42.805,6.029,13.2985,4.59997,2470.203,2020-12-09T05:57:42Z
2020-12-09T03:59:46Z,42.805,6.029,13.2985,4.59995,2470.194,2020-12-09T06:00:45Z
2020-12-09T04:02:49Z,42.805,6.029,13.2983,4.59992,2470.18,2020-12-09T06:03:48Z
2020-12-09T04:05:52Z,42.805,6.029,13.2984,4.60005,2470.217,2020-12-09T06:06:51Z
2020-12-09T04:08:56Z,42.805,6.029,13.2987,4.59999,2470.24,2020-12-09T06:09:54Z
2020-12-09T04:11:59Z,42.805,6.029,13.2982,4.59996,2470.194,2020-12-09T06:12:57Z
2020-12-09T04:15:02Z,42.805,6.029,13.2986,4.59994,2470.194,2020-12-09T06:16:00Z
2020-12-09T04:18:05Z,42.805,6.029,13.2981,4.59996,2470.156,2020-12-09T06:19:03Z
2020-12-09T04:21:08Z,42.805,6.029,13.2988,4.60000,2470.18,2020-12-09T06:22:06Z
2020-12-09T04:24:11Z,42.805,6.029,13.2982,4.59991,2470.203,2020-12-09T06:25:10Z
2020-12-09T04:27:14Z,42.805,6.029,13.2983,4.59994,2470.203,2020-12-09T06:28:13Z
2020-12-09T04:30:17Z,42.805,6.029,13.2984,4.59994,2470.217,2020-12-09T06:31:16Z
2020-12-09T04:33:20Z,42.805,6.029,13.2986,4.59996,2470.203,2020-12-09T06:34:19Z
2020-12-09T04:36:24Z,42.805,6.029,13.2983,4.59992,2470.24,2020-12-09T06:37:22Z
2020-12-09T04:39:27Z,42.805,6.029,13.2983,4.59992,2470.25,2020-12-09T06:40:25Z
2020-12-09T04:42:30Z,42.805,6.029,13.2981,4.59996,2470.203,2020-12-09T06:43:28Z
2020-12-09T04:45:33Z,42.805,6.029,13.2985,4.59993,2470.18,2020-12-09T06:46:31Z
2020-12-09T04:48:36Z,42.805,6.029,13.2984,4.59995,2470.203,2020-12-09T06:49:34Z
2020-12-09T04:51:39Z,42.805,6.029,13.2982,4.59996,2470.213,2020-12-09T06:52:38Z
2020-12-09T04:54:42Z,42.805,6.029,13.2985,4.59998,2470.203,2020-12-09T06:55:41Z
2020-12-09T04:57:45Z,42.805,6.029,13.2983,4.59997,2470.217,2020-12-09T06:58:44Z
2020-12-09T05:00:49Z,42.805,6.029,13.2985,4.59996,2470.203,2020-12-09T07:01:47Z
2020-12-09T05:03:52Z,42.805,6.029,13.2981,4.59990,2470.203,2020-12-09T07:04:50Z
2020-12-09T05:06:55Z,42.805,6.029,13.2976,4.59991,2470.156,2020-12-09T07:07:53Z
2020-12-09T05:09:58Z,42.805,6.029,13.2983,4.59995,2470.203,2020-12-09T07:10:56Z
2020-12-09T05:13:01Z,42.805,6.029,13.2985,4.60004,2470.217,2020-12-09T07:13:59Z
2020-12-09T05:16:04Z,42.805,6.029,13.2982,4.60000,2470.227,2020-12-09T07:17:03Z
2020-12-09T05:19:07Z,42.805,6.029,13.2984,4.60002,2470.203,2020-12-09T07:20:06Z
2020-12-09T05:22:10Z,42.805,6.029,13.2986,4.60001,2470.194,2020-12-09T07:23:09Z
2020-12-09T05:25:13Z,42.805,6.029,13.2982,4.59988,2470.194,2020-12-09T07:26:12Z
2020-12-09T05:28:17Z,42.805,6.029,13.2984,4.59996,2470.217,2020-12-09T07:29:15Z
2020-12-09T05:31:20Z,42.805,6.029,13.2982,4.59995,2470.156,2020-12-09T07:32:18Z
2020-12-09T05:34:23Z,42.805,6.029,13.2985,4.59996,2470.194,2020-12-09T07:35:21Z
2020-12-09T05:37:26Z,42.805,6.029,13.2988,4.59994,2470.217,2020-12-09T07:38:24Z
2020-12-09T05:40:29Z,42.805,6.029,13.2979,4.59997,2470.156,2020-12-09T07:41:27Z
2020-12-09T05:43:32Z,42.805,6.029,13.2983,4.60000,2470.24,2020-12-09T07:44:31Z
2020-12-09T05:46:35Z,42.805,6.029,13.2989,4.59999,2470.194,2020-12-09T07:47:34Z
2020-12-09T05:49:38Z,42.805,6.029,13.2982,4.59990,2470.203,2020-12-09T07:50:37Z
2020-12-09T05:52:42Z,42.805,6.029,13.2985,4.60002,2470.18,2020-12-09T07:53:40Z
2020-12-09T05:55:45Z,42.805,6.029,13.2990,4.59998,2470.18,2020-12-09T07:56:43Z
2020-12-09T05:58:48Z,42.805,6.029,13.2986,4.59989,2470.18,2020-12-09T07:59:46Z
2020-12-09T06:01:51Z,42.805,6.029,13.2980,4.59999,2470.18,2020-12-09T08:02:49Z
2020-12-09T06:04:54Z,42.805,6.029,13.2981,4.59996,2470.194,2020-12-09T08:05:52Z
2020-12-09T06:07:57Z,42.805,6.029,13.2986,4.59996,2470.227,2020-12-09T08:08:56Z
2020-12-09T06:11:00Z,42.805,6.029,13.2981,4.59992,2470.203,2020-12-09T08:11:59Z
2020-12-09T06:14:03Z,42.805,6.029,13.2985,4.59994,2470.18,2020-12-09T08:15:02Z
2020-12-09T06:17:06Z,42.805,6.029,13.2983,4.59991,2470.227,2020-12-09T08:18:05Z
2020-12-09T06:20:10Z,42.805,6.029,13.2986,4.59995,2470.18,2020-12-09T08:21:08Z
2020-12-09T06:23:13Z,42.805,6.029,13.2990,4.59994,2470.203,2020-12-09T08:24:11Z
2020-12-09T06:26:16Z,42.805,6.029,13.2986,4.59990,2470.171,2020-12-09T08:27:14Z
2020-12-09T06:29:19Z,42.805,6.029,13.2987,4.59995,2470.156,2020-12-09T08:30:17Z
2020-12-09T06:32:22Z,42.805,6.029,13.2988,4.59996,2470.147,2020-12-09T08:33:20Z
2020-12-09T06:35:25Z,42.805,6.029,13.2982,4.59992,2470.171,2020-12-09T08:36:24Z
2020-12-09T06:38:28Z,42.805,6.029,13.2993,4.60007,2470.194,2020-12-09T08:39:27Z
2020-12-09T06:41:31Z,42.805,6.029,13.2979,4.59988,2470.156,2020-12-09T08:42:30Z
2020-12-09T06:44:34Z,42.805,6.029,13.2983,4.59998,2470.194,2020-12-09T08:45:33Z
2020-12-09T06:47:38Z,42.805,6.029,13.2983,4.59999,2470.208,2020-12-09T08:48:36Z
2020-12-09T06:50:41Z,42.805,6.029,13.2984,4.60002,2470.133,2020-12-09T08:51:39Z
2020-12-09T06:53:44Z,42.805,6.029,13.2986,4.60000,2470.156,2020-12-09T08:54:42Z
2020-12-09T06:56:47Z,42.805,6.029,13.2986,4.59990,2470.171,2020-12-09T08:57:45Z
2020-12-09T06:59:50Z,42.805,6.029,13.2981,4.59988,2470.156,2020-12-09T09:00:49Z
2020-12-09T07:02:53Z,42.805,6.029,13.2983,4.59995,2470.18,2020-12-09T09:03:52Z
2020-12-09T07:05:56Z,42.805,6.029,13.2987,4.60001,2470.156,2020-12-09T09:06:55Z
2020-12-09T07:08:59Z,42.805,6.029,13.2980,4.59996,2470.171,2020-12-09T09:09:58Z
2020-12-09T07:12:03Z,42.805,6.029,13.2989,4.60001,2470.171,2020-12-09T09:13:01Z
2020-12-09T07:15:06Z,42.805,6.029,13.2984,4.59997,2470.156,2020-12-09T09:16:04Z
2020-12-09T07:18:09Z,42.805,6.029,13.2983,4.59990,2470.203,2020-12-09T09:19:07Z
2020-12-09T07:21:12Z,42.805,6.029,13.2989,4.59999,2470.203,2020-12-09T09:22:10Z
2020-12-09T07:24:15Z,42.805,6.029,13.2985,4.60005,2470.194,2020-12-09T09:25:13Z
2020-12-09T07:27:18Z,42.805,6.029,13.2986,4.59999,2470.156,2020-12-09T09:28:17Z
2020-12-09T07:30:21Z,42.805,6.029,13.2980,4.59990,2470.156,2020-12-09T09:31:20Z
2020-12-09T07:33:24Z,42.805,6.029,13.2981,4.59988,2470.156,2020-12-09T09:34:23Z
2020-12-09T07:36:27Z,42.805,6.029,13.2982,4.60001,2470.171,2020-12-09T09:37:26Z
2020-12-09T07:39:31Z,42.805,6.029,13.2984,4.60003,2470.171,2020-12-09T09:40:29Z
2020-12-09T07:42:34Z,42.805,6.029,13.2986,4.60000,2470.194,2020-12-09T09:43:32Z
2020-12-09T07:45:37Z,42.805,6.029,13.2987,4.60003,2470.171,2020-12-09T09:46:35Z
2020-12-09T07:48:40Z,42.805,6.029,13.2985,4.60003,2470.18,2020-12-09T09:49:38Z
2020-12-09T07:51:43Z,42.805,6.029,13.2983,4.60001,2470.156,2020-12-09T09:52:42Z
2020-12-09T07:54:46Z,42.805,6.029,13.2991,4.59999,2470.156,2020-12-09T09:55:45Z
2020-12-09T07:57:49Z,42.805,6.029,13.2980,4.60001,2470.133,2020-12-09T09:58:48Z
2020-12-09T08:00:52Z,42.805,6.029,13.2982,4.60001,2470.194,2020-12-09T10:01:51Z
2020-12-09T08:03:56Z,42.805,6.029,13.2982,4.60003,2470.171,2020-12-09T10:04:54Z
2020-12-09T08:06:59Z,42.805,6.029,13.2986,4.59991,2470.156,2020-12-09T10:07:57Z
2020-12-09T08:10:02Z,42.805,6.029,13.2985,4.59996,2470.156,2020-12-09T10:11:00Z
2020-12-09T08:13:05Z,42.805,6.029,13.2986,4.60000,2470.18,2020-12-09T10:14:03Z
2020-12-09T08:16:08Z,42.805,6.029,13.2986,4.60003,2470.171,2020-12-09T10:17:07Z
2020-12-09T08:19:11Z,42.805,6.029,13.2986,4.59999,2470.18,2020-12-09T10:20:10Z
2020-12-09T08:22:14Z,42.805,6.029,13.2983,4.59998,2470.171,2020-12-09T10:23:13Z
2020-12-09T08:25:17Z,42.805,6.029,13.2981,4.59995,2470.147,2020-12-09T10:26:16Z
2020-12-09T08:28:21Z,42.805,6.029,13.2988,4.60002,2470.156,2020-12-09T10:29:19Z
2020-12-09T08:31:24Z,42.805,6.029,13.2986,4.59999,2470.18,2020-12-09T10:32:22Z
2020-12-09T08:34:27Z,42.805,6.029,13.2991,4.60002,2470.156,2020-12-09T10:35:25Z
2020-12-09T08:37:30Z,42.805,6.029,13.2983,4.60003,2470.171,2020-12-09T10:38:28Z
2020-12-09T08:40:33Z,42.805,6.029,13.2986,4.60009,2470.156,2020-12-09T10:41:31Z
2020-12-09T08:43:36Z,42.805,6.029,13.2990,4.59998,2470.156,2020-12-09T10:44:35Z
2020-12-09T08:46:39Z,42.805,6.029,13.2986,4.60008,2470.156,2020-12-09T10:47:38Z
2020-12-09T08:49:42Z,42.805,6.029,13.2987,4.60002,2470.133,2020-12-09T10:50:41Z
2020-12-09T08:52:46Z,42.805,6.029,13.2985,4.60001,2470.194,2020-12-09T10:53:44Z
2020-12-09T08:55:49Z,42.805,6.029,13.2989,4.60005,2470.18,2020-12-09T10:56:47Z
2020-12-09T08:58:52Z,42.805,6.029,13.2986,4.60006,2470.171,2020-12-09T10:59:50Z
2020-12-09T09:01:55Z,42.805,6.029,13.2982,4.60003,2470.203,2020-12-09T11:02:53Z
2020-12-09T09:04:58Z,42.805,6.029,13.2988,4.60001,2470.156,2020-12-09T11:05:56Z
2020-12-09T09:08:01Z,42.805,6.029,13.2990,4.60011,2470.171,2020-12-09T11:09:00Z
2020-12-09T09:11:04Z,42.805,6.029,13.2990,4.60000,2470.194,2020-12-09T11:12:03Z
2020-12-09T09:14:07Z,42.805,6.029,13.2981,4.59993,2470.171,2020-12-09T11:15:06Z
2020-12-09T09:17:11Z,42.805,6.029,13.2986,4.60003,2470.194,2020-12-09T11:18:09Z
2020-12-09T09:20:14Z,42.805,6.029,13.2983,4.60003,2470.18,2020-12-09T11:21:12Z
2020-12-09T09:23:17Z,42.805,6.029,13.2980,4.59998,2470.18,2020-12-09T11:24:15Z
2020-12-09T09:26:20Z,42.805,6.029,13.2984,4.60002,2470.194,2020-12-09T11:27:18Z
2020-12-09T09:29:23Z,42.805,6.029,13.2986,4.59996,2470.171,2020-12-09T11:30:21Z
2020-12-09T09:32:26Z,42.805,6.029,13.2981,4.59996,2470.156,2020-12-09T11:33:25Z
2020-12-09T09:35:29Z,42.805,6.029,13.2983,4.59997,2470.194,2020-12-09T11:36:28Z
2020-12-09T09:38:32Z,42.805,6.029,13.2985,4.60007,2470.156,2020-12-09T11:39:31Z
2020-12-09T09:41:35Z,42.805,6.029,13.2985,4.59996,2470.18,2020-12-09T11:42:34Z
2020-12-09T09:44:39Z,42.805,6.029,13.2986,4.60005,2470.194,2020-12-09T11:45:37Z
2020-12-09T09:47:42Z,42.805,6.029,13.2979,4.59993,2470.227,2020-12-09T11:48:40Z
2020-12-09T09:50:45Z,42.805,6.029,13.2986,4.59999,2470.18,2020-12-09T11:51:43Z
2020-12-09T09:53:48Z,42.805,6.029,13.2993,4.60002,2470.18,2020-12-09T11:54:46Z
2020-12-09T09:56:51Z,42.805,6.029,13.2983,4.60007,2470.18,2020-12-09T11:57:50Z
2020-12-09T09:59:54Z,42.805,6.029,13.2986,4.59999,2470.18,2020-12-09T12:00:53Z
2020-12-09T10:02:57Z,42.805,6.029,13.2990,4.60006,2470.156,2020-12-09T12:03:56Z
2020-12-09T10:06:00Z,42.805,6.029,13.2992,4.60003,2470.171,2020-12-09T12:06:59Z
2020-12-09T10:09:04Z,42.805,6.029,13.2983,4.59996,2470.194,2020-12-09T12:10:02Z
2020-12-09T10:12:07Z,42.805,6.029,13.2984,4.59999,2470.203,2020-12-09T12:13:05Z
2020-12-09T10:15:10Z,42.805,6.029,13.2990,4.60001,2470.203,2020-12-09T12:16:08Z
2020-12-09T10:18:13Z,42.805,6.029,13.2995,4.60001,2470.203,2020-12-09T12:19:11Z
2020-12-09T10:21:16Z,42.805,6.029,13.2988,4.59999,2470.203,2020-12-09T12:22:15Z
2020-12-09T10:24:19Z,42.805,6.029,13.2987,4.60006,2470.227,2020-12-09T12:25:18Z
2020-12-09T10:27:22Z,42.805,6.029,13.2991,4.60006,2470.25,2020-12-09T12:28:21Z
2020-12-09T10:30:25Z,42.805,6.029,13.2985,4.60000,2470.217,2020-12-09T12:31:24Z
2020-12-09T10:33:29Z,42.805,6.029,13.2993,4.60007,2470.203,2020-12-09T12:34:27Z
2020-12-09T10:36:32Z,42.805,6.029,13.2988,4.60009,2470.194,2020-12-09T12:37:30Z
2020-12-09T10:39:35Z,42.805,6.029,13.2990,4.60002,2470.227,2020-12-09T12:40:33Z
2020-12-09T10:42:38Z,42.805,6.029,13.2991,4.60003,2470.217,2020-12-09T12:43:36Z
2020-12-09T10:45:41Z,42.805,6.029,13.2993,4.60006,2470.203,2020-12-09T12:46:40Z
2020-12-09T10:48:44Z,42.805,6.029,13.2986,4.59999,2470.24,2020-12-09T12:49:43Z
2020-12-09T10:51:47Z,42.805,6.029,13.2982,4.60003,2470.203,2020-12-09T12:52:46Z
2020-12-09T10:54:50Z,42.805,6.029,13.2983,4.60004,2470.227,2020-12-09T12:55:49Z
2020-12-09T10:57:54Z,42.805,6.029,13.2993,4.59996,2470.203,2020-12-09T12:58:52Z
2020-12-09T11:00:57Z,42.805,6.029,13.2983,4.59992,2470.264,2020-12-09T13:01:55Z
2020-12-09T11:04:00Z,42.805,6.029,13.2982,4.59991,2470.227,2020-12-09T13:04:58Z
2020-12-09T11:07:03Z,42.805,6.029,13.2982,4.59999,2470.24,2020-12-09T13:08:01Z
2020-12-09T11:10:06Z,42.805,6.029,13.2985,4.60005,2470.24,2020-12-09T13:11:05Z
2020-12-09T11:13:09Z,42.805,6.029,13.2983,4.59989,2470.24,2020-12-09T13:14:08Z
2020-12-09T11:16:12Z,42.805,6.029,13.2996,4.60007,2470.264,2020-12-09T13:17:11Z
2020-12-09T11:19:15Z,42.805,6.029,13.2991,4.59992,2470.227,2020-12-09T13:20:14Z
2020-12-09T11:22:19Z,42.805,6.029,13.2986,4.60003,2470.264,2020-12-09T13:23:17Z
2020-12-09T11:25:22Z,42.805,6.029,13.2986,4.60001,2470.264,2020-12-09T13:26:20Z
2020-12-09T11:28:25Z,42.805,6.029,13.2982,4.59991,2470.264,2020-12-09T13:29:23Z
2020-12-09T11:31:28Z,42.805,6.029,13.2981,4.59991,2470.25,2020-12-09T13:32:26Z
2020-12-09T11:34:31Z,42.805,6.029,13.2982,4.59989,2470.24,2020-12-09T13:35:30Z
2020-12-09T11:37:34Z,42.805,6.029,13.2980,4.59996,2470.273,2020-12-09T13:38:33Z
2020-12-09T11:40:37Z,42.805,6.029,13.2983,4.59996,2470.213,2020-12-09T13:41:36Z
2020-12-09T11:43:40Z,42.805,6.029,13.2985,4.59997,2470.25,2020-12-09T13:44:39Z
2020-12-09T11:46:44Z,42.805,6.029,13.2988,4.59999,2470.25,2020-12-09T13:47:42Z
2020-12-09T11:49:47Z,42.805,6.029,13.2986,4.59999,2470.25,2020-12-09T13:50:45Z
2020-12-09T11:52:50Z,42.805,6.029,13.2983,4.59995,2470.264,2020-12-09T13:53:48Z
2020-12-09T11:55:53Z,42.805,6.029,13.2983,4.60004,2470.25,2020-12-09T13:56:51Z
2020-12-09T11:58:56Z,42.805,6.029,13.2986,4.59996,2470.273,2020-12-09T13:59:54Z
2020-12-09T12:01:59Z,42.805,6.029,13.2986,4.60002,2470.25,2020-12-09T14:02:58Z
2020-12-09T12:05:02Z,42.805,6.029,13.2992,4.60003,2470.25,2020-12-09T14:06:01Z
2020-12-09T12:08:05Z,42.805,6.029,13.2983,4.59995,2470.264,2020-12-09T14:09:04Z
2020-12-09T12:11:08Z,42.805,6.029,13.2987,4.60009,2470.273,2020-12-09T14:12:07Z
2020-12-09T12:14:12Z,42.805,6.029,13.2983,4.60002,2470.264,2020-12-09T14:15:10Z
2020-12-09T12:17:15Z,42.805,6.029,13.2986,4.59999,2470.287,2020-12-09T14:18:13Z
2020-12-09T12:20:18Z,42.805,6.029,13.2981,4.59991,2470.273,2020-12-09T14:21:16Z
2020-12-09T12:23:21Z,42.805,6.029,13.2982,4.60002,2470.273,2020-12-09T14:24:19Z
2020-12-09T12:26:24Z,42.805,6.029,13.2983,4.59996,2470.273,2020-12-09T14:27:23Z
2020-12-09T12:29:27Z,42.805,6.029,13.2983,4.59995,2470.264,2020-12-09T14:30:26Z
2020-12-09T12:32:30Z,42.805,6.029,13.2986,4.59992,2470.297,2020-12-09T14:33:29Z
2020-12-09T12:35:33Z,42.805,6.029,13.2982,4.59998,2470.273,2020-12-09T14:36:32Z
2020-12-09T12:38:37Z,42.805,6.029,13.2979,4.59999,2470.273,2020-12-09T14:39:35Z
2020-12-09T12:41:40Z,42.805,6.029,13.2982,4.59997,2470.273,2020-12-09T14:42:38Z
2020-12-09T12:44:43Z,42.805,6.029,13.2982,4.59999,2470.297,2020-12-09T14:45:41Z
2020-12-09T12:47:46Z,42.805,6.029,13.2979,4.60000,2470.273,2020-12-09T14:48:44Z
2020-12-09T12:50:49Z,42.805,6.029,13.2983,4.59995,2470.31,2020-12-09T14:51:48Z
2020-12-09T12:53:52Z,42.805,6.029,13.2982,4.59996,2470.287,2020-12-09T14:54:51Z
2020-12-09T12:56:55Z,42.805,6.029,13.2982,4.59997,2470.287,2020-12-09T14:57:54Z
2020-12-09T12:59:58Z,42.805,6.029,13.2984,4.60000,2470.273,2020-12-09T15:00:57Z
2020-12-09T13:03:02Z,42.805,6.029,13.2984,4.59995,2470.297,2020-12-09T15:04:00Z
2020-12-09T13:06:05Z,42.805,6.029,13.2985,4.59986,2470.264,2020-12-09T15:07:03Z
2020-12-09T13:09:08Z,42.805,6.029,13.2982,4.59996,2470.297,2020-12-09T15:10:06Z
2020-12-09T13:12:11Z,42.805,6.029,13.2990,4.59987,2470.287,2020-12-09T15:13:09Z
2020-12-09T13:15:14Z,42.805,6.029,13.2983,4.59998,2470.273,2020-12-09T15:16:12Z
2020-12-09T13:18:17Z,42.805,6.029,13.2983,4.59993,2470.287,2020-12-09T15:19:16Z
2020-12-09T13:21:20Z,42.805,6.029,13.2980,4.59995,2470.343,2020-12-09T15:22:19Z
2020-12-09T13:24:23Z,42.805,6.029,13.2978,4.59995,2470.32,2020-12-09T15:25:22Z
2020-12-09T13:27:27Z,42.805,6.029,13.2985,4.59999,2470.25,2020-12-09T15:28:25Z
2020-12-09T13:30:30Z,42.805,6.029,13.2983,4.59998,2470.273,2020-12-09T15:31:28Z
2020-12-09T13:33:33Z,42.805,6.029,13.2996,4.60000,2470.287,2020-12-09T15:34:31Z
2020-12-09T13:36:36Z,42.805,6.029,13.2984,4.59999,2470.297,2020-12-09T15:37:34Z
2020-12-09T13:39:39Z,42.805,6.029,13.2983,4.59992,2470.25,2020-12-09T15:40:37Z
2020-12-09T13:42:42Z,42.805,6.029,13.2982,4.59992,2470.264,2020-12-09T15:43:41Z
2020-12-09T13:45:45Z,42.805,6.029,13.2990,4.60000,2470.26,2020-12-09T15:46:44Z
2020-12-09T13:48:48Z,42.805,6.029,13.2983,4.59999,2470.273,2020-12-09T15:49:47Z
2020-12-09T13:51:52Z,42.805,6.029,13.2982,4.59995,2470.25,2020-12-09T15:52:50Z
2020-12-09T13:54:55Z,42.805,6.029,13.2984,4.59994,2470.264,2020-12-09T15:55:53Z
2020-12-09T13:57:58Z,42.805,6.029,13.2983,4.59995,2470.287,2020-12-09T15:58:56Z
2020-12-09T14:01:01Z,42.805,6.029,13.2988,4.59995,2470.287,2020-12-09T16:01:59Z
2020-12-09T14:04:04Z,42.805,6.029,13.2987,4.59999,2470.297,2020-12-09T16:05:02Z
2020-12-09T14:07:07Z,42.805,6.029,13.2988,4.59995,2470.273,2020-12-09T16:08:06Z
2020-12-09T14:10:10Z,42.805,6.029,13.2985,4.59992,2470.264,2020-12-09T16:11:09Z
2020-12-09T14:13:13Z,42.805,6.029,13.2990,4.60003,2470.264,2020-12-09T16:14:12Z
2020-12-09T14:16:17Z,42.805,6.029,13.2986,4.60003,2470.32,2020-12-09T16:17:15Z
2020-12-09T14:19:20Z,42.805,6.029,13.2983,4.60000,2470.273,2020-12-09T16:20:18Z
2020-12-09T14:22:23Z,42.805,6.029,13.2985,4.60001,2470.297,2020-12-09T16:23:21Z
2020-12-09T14:25:26Z,42.805,6.029,13.2983,4.59991,2470.273,2020-12-09T16:26:24Z
2020-12-09T14:28:29Z,42.805,6.029,13.2987,4.59996,2470.31,2020-12-09T16:29:27Z
2020-12-09T14:31:32Z,42.805,6.029,13.2982,4.59995,2470.273,2020-12-09T16:32:31Z
2020-12-09T14:34:35Z,42.805,6.029,13.2990,4.60008,2470.297,2020-12-09T16:35:34Z
2020-12-09T14:37:38Z,42.805,6.029,13.2979,4.60000,2470.32,2020-12-09T16:38:37Z
2020-12-09T14:40:41Z,42.805,6.029,13.2982,4.59996,2470.287,2020-12-09T16:41:40Z
2020-12-09T14:43:45Z,42.805,6.029,13.2986,4.59999,2470.273,2020-12-09T16:44:43Z
2020-12-09T14:46:48Z,42.805,6.029,13.2983,4.60001,2470.297,2020-12-09T16:47:46Z
2020-12-09T14:49:51Z,42.805,6.029,13.2983,4.59997,2470.31,2020-12-09T16:50:49Z
2020-12-09T14:52:54Z,42.805,6.029,13.2986,4.60001,2470.264,2020-12-09T16:53:52Z
2020-12-09T14:55:57Z,42.805,6.029,13.2984,4.59995,2470.287,2020-12-09T16:56:56Z
2020-12-09T14:59:00Z,42.805,6.029,13.2983,4.59996,2470.273,2020-12-09T16:59:59Z
2020-12-09T15:02:04Z,42.805,6.029,13.2983,4.59994,2470.297,2020-12-09T17:03:02Z